User: anonymous   Login
Location: Leeds
(37.2390°N, 113.3580°W)
Time: 14:22:40
(UTC-07:00)
Language:

SL-08 RB Rocket - Orbit

View from above orbital plane
View from above orbital plane
View from above satellite
View from above satellite

Ground track
Ground track

The orbit data is extracted from the following two-line orbital elements,

1 26387U 00033D   17323.81602368  .00000136  00000-0  31784-4 0  9999
2 26387  97.9525  23.9651 0026086 199.4385 296.1068 14.68333282930714
Epoch (UTC): 19 November 2017 19:35:04
Eccentricity: 0.0026086
inclination: 97.9525°
perigee height: 648 km
apogee height: 685 km
right ascension of ascending node: 23.9651°
argument of perigee: 199.4385°
revolutions per day: 14.68333282
mean anomaly at epoch: 296.1068°
orbit number at epoch: 93071

The dashed part of the orbit path shows where the satellite is in the earth's shadow,  

DLR